Estación de Mayorquina
Ultimos registro cada 15 minutos 88
| N° | Estación | Fecha / Hora | Temperatura | Humedad | Lluvia | Velocidad | Dirección | Radiación | Presion |
| 88 | Mayorquina | 31-08-2026 21:45 | 14,5 | 77 | 0 | 1,3 | 35 | 0 | 1019,6 |
| 87 | Mayorquina | 31-08-2026 21:30 | 13,2 | 82 | 0 | 0 | 91 | 0 | 1019,6 |
| 86 | Mayorquina | 31-08-2026 21:15 | 11,3 | 85 | 0 | 0,4 | 97 | 0 | 1019,6 |
| 85 | Mayorquina | 31-08-2026 21:00 | 11,2 | 83 | 0 | 0 | 78 | 0 | 1019,8 |
| 84 | Mayorquina | 31-08-2026 20:45 | 12,1 | 82 | 0 | 0 | 78 | 0 | 1020 |
| 83 | Mayorquina | 31-08-2026 20:30 | 12,5 | 82 | 0 | 0 | 88 | 0 | 1019,8 |
| 82 | Mayorquina | 31-08-2026 20:15 | 12,6 | 81 | 0 | 0,9 | 91 | 0 | 1019,9 |
| 81 | Mayorquina | 31-08-2026 20:00 | 12,9 | 81 | 0 | 0 | 189 | 0 | 1019,8 |
| 80 | Mayorquina | 31-08-2026 19:45 | 12,8 | 80 | 0 | 0 | 228 | 0 | 1019,6 |
| 79 | Mayorquina | 31-08-2026 19:30 | 13,8 | 75 | 0 | 0 | 296 | 0 | 1019,6 |
| 78 | Mayorquina | 31-08-2026 19:15 | 14,8 | 73 | 0 | 0 | 296 | 0 | 1019,5 |
| 77 | Mayorquina | 31-08-2026 19:00 | 15,4 | 73 | 0 | 0 | 296 | 0 | 1019,7 |
| 76 | Mayorquina | 31-08-2026 18:45 | 15,9 | 73 | 0 | 0,4 | 239 | 0 | 1019,7 |
| 75 | Mayorquina | 31-08-2026 18:30 | 16,3 | 73 | 0 | 0,4 | 281 | 0 | 1019,3 |
| 74 | Mayorquina | 31-08-2026 18:15 | 16,7 | 74 | 0 | 1,8 | 256 | 11 | 1019,1 |
| 73 | Mayorquina | 31-08-2026 18:00 | 17,1 | 75 | 0 | 1,3 | 283 | 23 | 1018,7 |
| 72 | Mayorquina | 31-08-2026 17:45 | 17,7 | 73 | 0 | 2,7 | 214 | 40 | 1018,7 |
| 71 | Mayorquina | 31-08-2026 17:30 | 18,1 | 71 | 0 | 2,2 | 254 | 107 | 1018,5 |
| 70 | Mayorquina | 31-08-2026 17:15 | 18,8 | 67 | 0 | 4,5 | 234 | 172 | 1018,4 |
| 69 | Mayorquina | 31-08-2026 17:00 | 19,6 | 62 | 0 | 4,5 | 248 | 192 | 1018 |
| 68 | Mayorquina | 31-08-2026 16:45 | 20,4 | 59 | 0 | 3,1 | 237 | 269 | 1017,6 |
| 67 | Mayorquina | 31-08-2026 16:30 | 21,6 | 53 | 0 | 6,7 | 263 | 323 | 1017,4 |
| 66 | Mayorquina | 31-08-2026 16:15 | 23 | 50 | 0 | 5,4 | 250 | 387 | 1016,8 |
| 65 | Mayorquina | 31-08-2026 16:00 | 24,7 | 42 | 0 | 5,8 | 259 | 439 | 1016,5 |
| 64 | Mayorquina | 31-08-2026 15:45 | 24,8 | 43 | 0 | 1,8 | 238 | 489 | 1016,2 |
| 63 | Mayorquina | 31-08-2026 15:30 | 24,6 | 44 | 0 | 1,8 | 243 | 536 | 1016,4 |
| 62 | Mayorquina | 31-08-2026 15:15 | 24,3 | 46 | 0 | 4,5 | 277 | 580 | 1016,6 |
| 61 | Mayorquina | 31-08-2026 15:00 | 24,5 | 46 | 0 | 4 | 243 | 619 | 1016,9 |
| 60 | Mayorquina | 31-08-2026 14:45 | 25,6 | 43 | 0 | 5,4 | 261 | 654 | 1017,1 |
| 59 | Mayorquina | 31-08-2026 14:30 | 26,4 | 41 | 0 | 3,6 | 262 | 691 | 1017,2 |
| 58 | Mayorquina | 31-08-2026 14:15 | 27,6 | 36 | 0 | 5,4 | 236 | 722 | 1017,4 |
| 57 | Mayorquina | 31-08-2026 14:00 | 27,5 | 35 | 0 | 3,6 | 282 | 752 | 1017,5 |
| 56 | Mayorquina | 31-08-2026 13:45 | 27,1 | 38 | 0 | 1,3 | 245 | 773 | 1017,8 |
| 55 | Mayorquina | 31-08-2026 13:30 | 27,1 | 34 | 0 | 5,4 | 243 | 768 | 1018,1 |
| 54 | Mayorquina | 31-08-2026 13:15 | 26,8 | 36 | 0 | 2,2 | 244 | 802 | 1018,2 |
| 53 | Mayorquina | 31-08-2026 13:00 | 25,7 | 41 | 0 | 2,2 | 269 | 821 | 1018,8 |
| 52 | Mayorquina | 31-08-2026 12:45 | 25,7 | 41 | 0 | 2,2 | 269 | 821 | 1018,8 |
| 51 | Mayorquina | 31-08-2026 12:30 | 26,1 | 42 | 0 | 2,2 | 229 | 821 | 1019 |
| 50 | Mayorquina | 31-08-2026 12:15 | 25,3 | 45 | 0 | 0,4 | 283 | 812 | 1019,3 |
| 49 | Mayorquina | 31-08-2026 12:00 | 24,3 | 46 | 0 | 1,3 | 307 | 809 | 1019,8 |
| 48 | Mayorquina | 31-08-2026 11:45 | 23,9 | 46 | 0 | 1,8 | 262 | 796 | 1020,3 |
| 47 | Mayorquina | 31-08-2026 11:30 | 23,1 | 48 | 0 | 0,9 | 253 | 780 | 1020,6 |
| 46 | Mayorquina | 31-08-2026 11:15 | 22,8 | 49 | 0 | 1,3 | 233 | 756 | 1020,9 |
| 45 | Mayorquina | 31-08-2026 11:00 | 22,5 | 50 | 0 | 2,7 | 231 | 733 | 1020,8 |
| 44 | Mayorquina | 31-08-2026 10:45 | 22,4 | 52 | 0 | 0 | 254 | 701 | 1020,8 |
| 43 | Mayorquina | 31-08-2026 10:30 | 22,2 | 53 | 0 | 0,9 | 180 | 668 | 1021 |
| 42 | Mayorquina | 31-08-2026 10:15 | 21,8 | 54 | 0 | 0,9 | 214 | 629 | 1021,1 |
| 41 | Mayorquina | 31-08-2026 10:00 | 21,7 | 54 | 0 | 0,4 | 223 | 589 | 1021,2 |
| 40 | Mayorquina | 31-08-2026 09:45 | 21 | 57 | 0 | 0,9 | 84 | 545 | 1021,4 |
| 39 | Mayorquina | 31-08-2026 09:30 | 20,8 | 59 | 0 | 1,3 | 80 | 499 | 1021,4 |
| 38 | Mayorquina | 31-08-2026 09:15 | 20,3 | 59 | 0 | 1,3 | 105 | 450 | 1021,4 |
| 37 | Mayorquina | 31-08-2026 09:00 | 19,3 | 64 | 0 | 1,3 | 47 | 401 | 1021,3 |
| 36 | Mayorquina | 31-08-2026 08:45 | 18,4 | 67 | 0 | 1,8 | 74 | 350 | 1021,5 |
| 35 | Mayorquina | 31-08-2026 08:30 | 18,1 | 69 | 0 | 1,3 | 76 | 294 | 1021,5 |
| 34 | Mayorquina | 31-08-2026 08:15 | 16,8 | 73 | 0 | 1,3 | 47 | 241 | 1021 |
| 33 | Mayorquina | 31-08-2026 08:00 | 16,1 | 76 | 0 | 3,1 | 70 | 178 | 1021,1 |
| 32 | Mayorquina | 31-08-2026 07:45 | 15,3 | 78 | 0 | 4 | 35 | 114 | 1021 |
| 31 | Mayorquina | 31-08-2026 07:30 | 14,4 | 81 | 0 | 3,1 | 97 | 65 | 1020,8 |
| 30 | Mayorquina | 31-08-2026 07:15 | 13,3 | 85 | 0 | 0,4 | 92 | 25 | 1020,8 |
| 29 | Mayorquina | 31-08-2026 07:00 | 12,7 | 87 | 0 | 0,9 | 98 | 7 | 1020,8 |
| 28 | Mayorquina | 31-08-2026 06:45 | 12,8 | 87 | 0 | 0,9 | 93 | 0 | 1020,6 |
| 27 | Mayorquina | 31-08-2026 06:30 | 13,1 | 86 | 0 | 2,7 | 93 | 0 | 1020,4 |
| 26 | Mayorquina | 31-08-2026 06:15 | 13,1 | 86 | 0 | 1,8 | 70 | 0 | 1020,4 |
| 25 | Mayorquina | 31-08-2026 06:00 | 13,2 | 86 | 0 | 1,3 | 52 | 0 | 1020,3 |
| 24 | Mayorquina | 31-08-2026 05:45 | 12,9 | 88 | 0 | 1,8 | 54 | 0 | 1020,5 |
| 23 | Mayorquina | 31-08-2026 05:30 | 13 | 87 | 0 | 1,8 | 82 | 0 | 1020,5 |
| 22 | Mayorquina | 31-08-2026 05:15 | 12,9 | 88 | 0 | 2,7 | 93 | 0 | 1020,5 |
| 21 | Mayorquina | 31-08-2026 05:00 | 12,3 | 90 | 0 | 0,9 | 95 | 0 | 1020,5 |
| 20 | Mayorquina | 31-08-2026 04:45 | 11,7 | 92 | 0 | 0,9 | 97 | 0 | 1020,4 |
| 19 | Mayorquina | 31-08-2026 04:30 | 11,1 | 92 | 0 | 0,4 | 81 | 0 | 1020,7 |
| 18 | Mayorquina | 31-08-2026 04:15 | 10,8 | 92 | 0 | 0 | 81 | 0 | 1020,7 |
| 17 | Mayorquina | 31-08-2026 04:00 | 10,3 | 90 | 0 | 0 | 175 | 0 | 1020,8 |
| 16 | Mayorquina | 31-08-2026 03:45 | 10,6 | 90 | 0 | 0 | 175 | 0 | 1020,8 |
| 15 | Mayorquina | 31-08-2026 03:30 | 10,7 | 90 | 0 | 0 | 262 | 0 | 1020,7 |
| 14 | Mayorquina | 31-08-2026 03:15 | 10,6 | 92 | 0 | 0 | 262 | 0 | 1020,8 |
| 13 | Mayorquina | 31-08-2026 03:00 | 10,1 | 90 | 0 | 0 | 262 | 0 | 1020,9 |
| 12 | Mayorquina | 31-08-2026 02:45 | 10,1 | 87 | 0 | 0 | 262 | 0 | 1020,7 |
| 11 | Mayorquina | 31-08-2026 02:30 | 10,7 | 85 | 0 | 0 | 262 | 0 | 1020,4 |
| 10 | Mayorquina | 31-08-2026 02:15 | 11,6 | 84 | 0 | 0 | 262 | 0 | 1020,3 |
| 9 | Mayorquina | 31-08-2026 02:00 | 12,4 | 82 | 0 | 0 | 262 | 0 | 1020,5 |
| 8 | Mayorquina | 31-08-2026 01:45 | 13,2 | 82 | 0 | 0 | 262 | 0 | 1020,5 |
| 7 | Mayorquina | 31-08-2026 01:30 | 13,9 | 82 | 0 | 0 | 262 | 0 | 1020,5 |
| 6 | Mayorquina | 31-08-2026 01:15 | 14,4 | 82 | 0 | 0 | 250 | 0 | 1020,7 |
| 5 | Mayorquina | 31-08-2026 01:00 | 14,7 | 81 | 0 | 0 | 250 | 0 | 1020,7 |
| 4 | Mayorquina | 31-08-2026 00:45 | 14,9 | 81 | 0 | 0 | 250 | 0 | 1020,6 |
| 3 | Mayorquina | 31-08-2026 00:30 | 15 | 81 | 0 | 0 | 250 | 0 | 1020,5 |
| 2 | Mayorquina | 31-08-2026 00:15 | 15,1 | 80 | 0 | 0 | 250 | 0 | 1020,3 |
| 1 | Mayorquina | 31-08-2026 00:00 | 15,1 | 80 | 0 | 0 | 250 | 0 | 1020,5 |